Regional Weather Roundup
Issued by NWS New Orleans/Baton Rouge, LA

Home | Current Version | Previous Version | Text Only | Print | Product List | Glossary Off
Versions: 1 2 3 4 5 6 7 8 9 10 11 12 13 14 15 16 17 18 19 20 21 22 23 24 25 26 27 28 29 30 31 32 33 34 35 36 37 38 39 40 41 42 43 44 45 46 47 48 49 50

560
ASUS44 KLIX 170910
RWRLIX
NEW ORLEANS REGIONAL WEATHER ROUNDUP
NATIONAL WEATHER SERVICE NEW ORLEANS LA
400 AM CDT WED SEP 17 2014

NOTE: "FAIR" INDICATES FEW OR NO CLOUDS BELOW 12,000 FEET WITH NO
      SIGNIFICANT WEATHER AND/OR OBSTRUCTIONS TO VISIBILITY.
      SKY/WX - SKY CONDITION AND SIGNIFICANT WEATHER.
      TMP - AIR TEMPERATURE.     DP    - DEWPOINT TEMPERATURE.
      RH  - RELATIVE HUMIDITY.   PRES  - PRESSURE.
      HI  - HEAT INDEX.          WCI   - WIND CHILL INDEX.

*  THESE STATIONS ARE NOT NWS OR FAA STATIONS AND ARE NOT UNDER
   NWS QUALITY CONTROL.

LAZ038-040-048-061>063-065>067-069-171000-
SOUTHEAST LOUISIANA

CITY           SKY/WX    TMP DP  RH WIND       PRES   REMARKS
N.O. AUDUBON     N/A     75  75 100 MISG        N/A
N.O. INTL ARPT CLOUDY    76  70  82 W3        29.97R
N.O. LAKEFRONT CLOUDY    79  71  76 N7        29.96S
N.O. DOWNTOWN*   N/A     79  70  73 CALM      29.96F
SLIDELL        CLOUDY    73  70  90 N3        29.95F
BATON ROUGE    MOCLDY    73  71  93 W3        29.97S
BOOTHVILLE     CLOUDY    77  75  93 W3        29.96S
BELLE CHASSE   CLOUDY    76  72  87 CALM      29.96S
BOGALUSA*        N/A     73  70  89 CALM      29.97F
GALLIANO*      NOT AVBL
NEW ROADS*     FOG       72  71  98 CALM      29.97F VSB 1
GONZALES*        N/A     72  72 100 CALM      29.97S
HAMMOND*       CLOUDY    73  70  88 CALM      29.98R FOG
HOUMA*         CLOUDY    74  71  89 CALM      29.97S
PORT FOURCHON* NOT AVBL

$$

MSZ070-080>082-171000-
SOUTHERN MISSISSIPPI

CITY           SKY/WX    TMP DP  RH WIND       PRES   REMARKS
MCCOMB         MOCLDY    71  70  96 NW3       29.96F FOG
GULFPORT       CLOUDY    72  71  97 CALM      29.94F
BILOXI         CLOUDY    73  71  93 N2        29.95S
PASCAGOULA     CLOUDY    72  71  97 CALM      29.95S

$$

COASTAL OBSERVATIONS
LAKE AND NEARSHORE STATIONS

STATION/POSITION TIME  TEMP    WIND        PRES    WAVE
                       AIR SEA DIR/SP/G            HT/PER
                 (UTC) (F)     (DEG/KT/KT) (MB)    (FT/S)
PASCAGOULA       0900   74     350/  2/  3 1013.5
WAVELAND YACHT   0900   75     280/  1/  2 1013.5
GRAND ISLE       0900   80 86  340/  4/  7 1015.0
SOUTHWEST PASS   0900   82 90  330/  7/ 11 1014.5
NEW CANAL        0900   80 82  340/  2/  5 1015.0
SHELL BEACH      0900   79 80  360/  7/  9 1014.4

OFFSHORE STATIONS

STATION/POSITION TIME  TEMP    WIND        PRES    WAVE
                       AIR SEA DIR/SP/G            HT/PER
                 (UTC) (F)     (DEG/KT/KT) (MB)    (FT/S)
64 S DAUPHIN ISL 0805   81 85  310/  6/  8 1014.2    2/ 5

$$




USA.gov is the U.S. government's official web portal to all federal, state and local government web resources and services.